Regional Weather Roundup
Issued by NWS

Home | Current Version | Previous Version | Text Only | Print | Product List | Glossary On
Versions: 1 2 3 4 5 6 7 8 9 10 11 12 13 14 15 16 17 18 19 20 21 22 23 24 25 26 27 28 29 30 31 32 33 34 35 36 37 38 39 40 41 42 43 44 45 46 47 48 49 50
000
ASUS43 KDTX 051001
RWRMI
MICHIGAN HOURLY REGIONAL WEATHER ROUNDUP
NATIONAL WEATHER SERVICE DETROIT/PONTIAC MI
600 AM EDT SUN JUL 05 2015

NOTE: "FAIR" INDICATES FEW OR NO CLOUDS BELOW 12,000 FEET WITH NO
SIGNIFICANT WEATHER AND/OR OBSTRUCTION TO VISIBILITY.

MIZ047>049-052>055-059>063-066>070-074>076-081>083-051100-
SOUTHEAST LOWER MICHIGAN

CITY           SKY/WX    TMP DP  RH WIND       PRES   REMARKS
ADRIAN         CLEAR     56  55  97 CALM      30.12R FOG
ALMA           FOG       56  56  99 CALM      30.09R VSB 1/2
ANN ARBOR      CLEAR     52  51  97 CALM      30.10R
BAD AXE        CLEAR     55  53  94 CALM      30.07R
CARO           CLEAR     59  58  96 SW3       30.07S FOG
DETROIT CITY   CLEAR     63  56  78 CALM      30.10R
DETROIT        PTCLDY    62  57  83 CALM      30.11R HAZE
FLINT          CLEAR     59  55  87 CALM      30.09R FOG
GROSSE ILE     CLEAR     61  57  88 CALM      30.09R FOG
HILLSDALE      CLEAR     56  56 100 CALM      30.12R FOG
HOWELL         CLEAR     58  56  95 CALM      30.10R FOG

CITY           SKY/WX    TMP DP  RH WIND       PRES   REMARKS
JACKSON        CLEAR     56  54  93 CALM      30.11R
LAMBERTVILLE     N/A     57  54  89 CALM      30.11R FOG
LANSING        CLEAR     59  57  93 CALM      30.10R FOG
LAPEER         FAIR      55  53  95 CALM      30.09R FOG
MASON          CLEAR     54  54  99 CALM      30.10S FOG
MONROE         CLEAR     56  56  99 CALM      30.10R FOG
MT. CLEMENS    CLEAR     62  57  81 SW5       30.07R
PONTIAC        CLEAR     59  56  89 CALM      30.09R FOG
PORT HOPE        N/A     61  58  90 SW7       30.04S
PORT HURON     PTCLDY    55  55 100 CALM      30.09S FOG
TRI CITIES     CLEAR     62  58  86 CALM      30.08R
MIDLAND        FAIR      56  55  97 CALM      30.07S FOG
TROY           CLEAR     62  58  86 CALM      30.11R FOG
SAGINAW HB     CLEAR     59  59 100 SW5       30.07R
$$
MIZ043>046-050>051-056>058-064>065-071>073-077>080-051100-
SOUTHWEST LOWER MICHIGAN

CITY           SKY/WX    TMP DP  RH WIND       PRES   REMARKS
BATTLE CREEK   CLEAR     59  56  89 CALM      30.11R FOG
BENTON HARBOR  CLEAR     53  52  96 CALM      30.08R FOG
BIG RAPIDS     CLEAR     55  53  90 CALM      30.09S
COLDWATER        N/A     56  56  99 CALM      30.11R FOG
FREMONT        FAIR      57  56  99 E3        30.07F FOG
HOLLAND        CLEAR     57  55  93 E3        30.08S FOG
GRAND RAPIDS   CLOUDY    58  56  93 CALM      30.09S FOG
IONIA          FAIR      58  57  95 CALM      30.09R FOG
KALAMAZOO      CLEAR     58  55  90 CALM      30.11R FOG
LUDINGTON      CLEAR     56  54  93 CALM      30.06F FOG
MARSHALL       FOG       56  55  97 CALM      30.10R VSB 3/4
MOUNT PLEASANT   N/A     59  58  97 W3        30.08R FOG
MUSKEGON       MOCLDY    57  55  93 SE3       30.07F FOG
SOUTH HAVEN      N/A     56  54  95 CALM      30.08S FOG
$$
MIZ016>042-051100-
NORTHERN LOWER MICHIGAN

CITY           SKY/WX    TMP DP  RH WIND       PRES   REMARKS
ALPENA         CLEAR     50  48  93 CALM      30.07S
BEAVER ISLAND    N/A     51  50  98 CALM      30.04S FOG
BELLAIRE       CLEAR     51  50  96 CALM      30.06S FOG
CADILLAC       FOG       52  51  95 CALM      30.08F VSB<1/4
CHARLEVOIX     CLEAR     56  55  99 SE3       30.07F FOG
FRANKFORT      CLEAR     56  50  81 CALM      30.05F
GAYLORD        CLEAR     53  52  96 CALM      30.08S
GRAYLING       FOG       46  46  98 CALM      30.09S VSB 1/2
HARBOR SPRINGS CLEAR     54  52  95 CALM      30.05S
HOUGHTON LAKE  CLEAR     52  51  97 CALM      30.09S FOG
MANISTEE       CLEAR     54  50  87 E6        30.06F
OSCODA         CLEAR     52  50  94 CALM      30.06R
PELLSTON       PTCLDY    48  46  93 CALM      30.06R FOG
ROGERS CITY    CLEAR     55  54  96 CALM      30.07S
TRAVERSE CITY  CLEAR     56  54  93 CALM      30.04S FOG
$$
MIZ007>008-015-051100-
EASTERN UPPER MICHIGAN

CITY           SKY/WX    TMP DP  RH WIND       PRES   REMARKS
KINROSS        CLEAR     52  52 100 SE3       30.04S
MACKINAC ISLAN CLEAR     58  58  98 S6        30.05R
NEWBERRY       CLEAR     54  54  99 S3        30.03S
S. S. MARIE    CLEAR     50  48  93 CALM      30.04S FOG
$$
MIZ004>006-011>014-085-051100-
CENTRAL UPPER MICHIGAN

CITY           SKY/WX    TMP DP  RH WIND       PRES   REMARKS
MANISTIQUE     CLEAR     55  55  97 S6        30.02S FOG
ESCANABA       CLEAR     63  59  88 SE3       30.00S
MENOMINEE      PTCLDY    63  57  82 SW3       30.00R
SAWYER-GWINN   CLEAR     55  53  92 CALM      30.02R FOG
$$
MIZ001>003-009>011-084-051100-
WESTERN UPPER MICHIGAN

CITY           SKY/WX    TMP DP  RH WIND       PRES   REMARKS
IRON MOUNTAIN  MOCLDY    59  57  93 CALM      30.00R FOG
HOUGHTON       CLEAR     61  58  90 S9        29.95R
COPPER HARBOR    N/A     58  53  84 SW12G21   29.93R
IRONWOOD       CLEAR     66  64  94 SW7       29.95S
$$

ABBREVIATIONS USED IN REMARKS
   TC - TEMPERATURE IN CELSIUS
  WCI - WIND CHILL INDEX
   HX - HEAT INDEX
  VSB - VISIBILITY




USA.gov is the U.S. government's official web portal to all federal, state and local government web resources and services.